Regional Weather Roundup
Issued by NWS Bismarck, ND

Home | Current Version | Previous Version | Text Only | Print | Product List | Glossary On
Versions: 1 2 3 4 5 6 7 8 9 10 11 12 13 14 15 16 17 18 19 20 21 22 23 24 25 26 27 28 29 30 31 32 33 34 35 36 37 38 39 40 41 42 43 44 45 46 47 48 49 50
000
ASUS43 KBIS 100210
RWRBIS

NWR BROADCAST TEXT
NATIONAL WEATHER SERVICE BISMARCK ND
800 PM CST TUE FEB 09 2016

NOTE: "FAIR" INDICATES FEW OR NO CLOUDS BELOW 12,000 FEET WITH NO
SIGNIFICANT WEATHER AND/OR OBSTRUCTIONS TO VISIBILITY.


CITY           SKY/WX    TMP DP  RH WIND       PRES   REMARKS
WILLISTON      PTCLDY    31  23  72 CALM      30.04F
MINOT          FLURRIES  24  15  68 E14       30.10F WCI  12
MINOT AFB      MOCLDY    22  18  84 SE15      30.10S WCI   8
BISMARCK       CLOUDY    35  22  58 CALM      30.09F
DICKINSON      CLOUDY    27  20  75 E8        30.02F WCI  19
GARRISON         N/A     32  21  64 CALM      30.07F
HETTINGER ARPT CLOUDY    31  19  61 E3        30.06F
JAMESTOWN      CLOUDY    15   8  73 E8        30.14F WCI   4
BEACH          FAIR      32  28  86 CALM      30.05F
CARRINGTON     CLOUDY    14  14 100 SE10      30.17F WCI   1
HAZEN          CLOUDY    32  23  69 S3        30.10F HAZE
LINTON         CLOUDY    32  23  69 SE3       30.11F
MANDAN         CLOUDY    32  19  59 CALM      30.09F
OAKES          FAIR      16  10  79 E7        30.18F WCI   6
RUGBY          FAIR      12   7  79 E14       30.16S WCI  -3
STANLEY        CLOUDY    30  27  86 SE6       30.07F
TIOGA          CLOUDY    30  30 100 S5        30.08F
WATFORD CITY   FAIR      30  25  80 SE8       30.04F
$$

CITY           SKY/WX    TMP DP  RH WIND       PRES   REMARKS
GRAND FORKS    CLOUDY     5  -1  76 N7        30.27S WCI  -7
GRAND FORKS AF CLOUDY     4  -1  77 NE7       30.26S WCI  -8
DEVILS LAKE    CLOUDY    11   5  77 E10       30.19F WCI  -3
FARGO          CLOUDY    11   3  70 NE6       30.23F WCI   1
CAVALIER       FAIR       5   0  78 N7        30.28F WCI  -7
GRAFTON        FAIR       3   0  85 N9        30.30S WCI -11
GWINNER        CLOUDY    18  12  79 NE10      30.19F WCI   6
LANGDON        FAIR       5   0  78 NE6       30.19F WCI  -6
ROLLA          CLOUDY     9   3  78 E9        30.16F WCI  -5
WALHALLA       FAIR       5   1  85 NE5       30.28F WCI  -4
$$

CITY           SKY/WX    TMP DP  RH WIND       PRES   REMARKS
ABERDEEN       CLOUDY    25  14  63 E5        30.15F WCI  19
MOBRIDGE       CLOUDY    33  21  61 SE6       30.07F
BUFFALO          N/A     38  27  64 SW6       29.99F
RAPID CITY     CLEAR     31  26  82 CALM      30.10S
GLASGOW        CLEAR     40  31  70 W7        30.02F
SIDNEY         PTCLDY    30  21  69 NW5       30.04F
WOLF POINT     CLOUDY    33  29  85 CALM      30.02F
GLENDIVE       CLOUDY    37  27  65 W5        30.05F
MILES CITY     CLEAR     39  28  64 W8        30.06F
BAKER          CLOUDY    36  26  67 W8        30.05F
$$

CITY           SKY/WX    TMP DP  RH WIND       PRES   REMARKS
BILLINGS       CLOUDY    48  23  37 W22       30.13F
GREAT FALLS    PTCLDY    45  24  43 SW15      30.12F
REGINA         MOCLDY    28  25  86 SE15      29.96F WCI  17
ESTEVAN        CLOUDY    27  21  80 SE14      30.03F WCI  15
$$




USA.gov is the U.S. government's official web portal to all federal, state and local government web resources and services.